Location: downtown San Diego
(32.7310°N, 117.1990°W)
Time: 18:03:34
(UTC-07:00)

Cosmos 2341 Rocket - Pass Details

Date: 19 May 2017
Orbit: 968 x 1005 km, 82.9° (Epoch: 26 May)

Event Time Altitude Azimuth Distance (km) Brightness Sun altitude
Rises 22:58:36 0° 351° (N) 3,702 8.0 -31.4°
Reaches altitude 10° 23:01:07 10° 349° (N) 2,756 7.1 -31.7°
Enters shadow 23:07:01 70° 295° (WNW) 1,057 4.1 -32.2°
